Regional Weather Roundup
Issued by NWS

Home | Current Version | Previous Version | Text Only | Print | Product List | Glossary On
Versions: 1 2 3 4 5 6 7 8 9 10 11 12 13 14 15 16 17 18 19 20 21 22 23 24 25 26 27 28 29 30 31 32 33 34 35 36 37 38 39 40 41 42 43 44 45 46 47 48 49 50
000
ASUS43 KDMX 310807
RWRIA

WEATHER ROUNDUP FOR IOWA
NATIONAL WEATHER SERVICE DES MOINES IA
300 AM CDT TUE MAR 31 2015

NOTE: "FAIR" INDICATES FEW OR NO CLOUDS BELOW 12,000 FEET WITH NO
SIGNIFICANT WEATHER AND/OR OBSTRUCTIONS TO VISIBILITY.

* - THESE STATIONS ARE NOT NWS STATIONS...THUS NOT UNDER NWS
QUALITY CONTROL.  THEY ALSO DO NOT REPORT WEATHER SUCH
AS PRECIPITATION OR FOG.

IAZ001>003-012>014-020>022-031>034-043>046-310900-
   NORTHWEST IOWA

CITY           SKY/WX    TMP DP  RH WIND       PRES   REMARKS
CARROLL *      CLEAR     45  32  61 CALM      29.94S
CHEROKEE *     CLEAR     34  32  93 CALM      29.94F
DENISON *      CLEAR     39  32  75 CALM      29.94S
LE MARS *      CLEAR     32  28  86 CALM      29.96R
ORANGE CITY *  CLEAR     43  32  65 CALM      29.94S
SHELDON *      CLEAR     36  32  87 SW5       29.92S WCI  32
SIOUX CITY     PTCLDY    38  28  67 W5        29.96S WCI  34
SPENCER        CLEAR     40  32  73 NW6       29.92S
STORM LAKE *   CLEAR     45  32  61 NW7       29.94S
$$

IAZ055>058-069>071-079>083-090>094-310900-
   SOUTHWEST IOWA

CITY           SKY/WX    TMP DP  RH WIND       PRES   REMARKS
ATLANTIC *     CLEAR     46  32  57 CALM      29.95R
AUDUBON *      CLEAR     39  30  70 CALM      29.96S
CLARINDA *     CLEAR     37  36  93 CALM      29.96S
COUNCIL BLFS * CLEAR     50  32  50 N8        29.96R
CRESTON *      CLEAR     52  34  50 N9        29.94R
HARLAN  *      CLEAR     43  32  65 N3        29.98S
LAMONI         CLEAR     51  32  48 NW7       29.92S
RED OAK *      CLEAR     46  32  57 CALM      29.95S
SHENANDOAH *   CLEAR     39  32  75 CALM      29.96S
$$

IAZ047>049-059>061-072>074-084-310900-
   CENTRAL IOWA

CITY           SKY/WX    TMP DP  RH WIND       PRES   REMARKS
AMES           CLEAR     48  34  58 NW8       29.91S
ANKENY *       CLEAR     52  36  54 NW8       29.92S
CHARITON *     CLEAR     48  32  53 CALM      29.92R
DES MOINES     CLEAR     51  32  48 NW7       29.93R
GRINNELL*      CLEAR     45  34  65 NW8       29.89S
KNOXVILLE *    CLEAR     50  34  53 NW10      29.90S
MARSHALLTOWN     N/A     41  34  76 NW8       29.88R
PELLA *        CLEAR     50  37  62 NW9       29.91S
PERRY *          N/A     41  32  70 W8        29.93S
$$

IAZ004>006-015-016-023>025-035-036-310900-
   NORTH CENTRAL IOWA

CITY           SKY/WX    TMP DP  RH WIND       PRES   REMARKS
ALGONA *       CLEAR     43  34  70 NW7       29.91S
CLARION *      CLEAR     39  36  87 N7        29.90F WCI  34
ESTHERVILLE    CLEAR     37  31  78 W8        29.90F WCI  31
FORT DODGE *   CLEAR     43  34  70 CALM      29.92F
MASON CITY     CLEAR     36  32  85 W6        29.90S WCI  31
FOREST CITY *  CLEAR     34  32  93 CALM      29.89S
IOWA FALLS *     N/A     41  34  75 W7        29.90S
$$

IAZ007>011-017>019-026>030-037>042-050>054-066-310900-
   NORTHEAST IOWA

CITY           SKY/WX    TMP DP  RH WIND       PRES   REMARKS
CEDAR RAPIDS   CLEAR     47  36  65 NW14      29.83R
CHARLES CITY * CLEAR     37  36  93 NW7       29.88S WCI  32
CLINTON *      CLEAR     43  32  65 NW10      29.80S
DECORAH *      CLEAR     39  34  81 NW7       29.85S WCI  34
DUBUQUE        CLEAR     44  33  65 N13       29.80R
MONTICELLO *   CLEAR     46  37  71 N10       29.82R
OELWEIN *      CLEAR     37  34  87 N8        29.86R WCI  31
WATERLOO       CLEAR     40  35  83 NW8       29.86R WCI  34
$$

IAZ064-065-067-068-078-310900-
   EAST CENTRAL IOWA

CITY           SKY/WX    TMP DP  RH WIND       PRES   REMARKS
DAVENPORT      CLEAR     48  32  53 W13       29.80R
IOWA CITY      CLEAR     53  35  50 NW14      29.85R
MT. PLEASANT * CLEAR     54  32  43 W10       29.87S
MUSCATINE *    CLEAR     52  34  50 W14       29.83S
QUAD CITIES    CLEAR     52  32  46 W12       29.79S
$$

IAZ062-063-075>077-085>089-095>099-310900-
   SOUTHEAST IOWA

CITY           SKY/WX    TMP DP  RH WIND       PRES   REMARKS
BURLINGTON     CLEAR     56  34  43 W10G20    29.85R
FAIRFIELD *    CLEAR     52  32  46 W9        29.88S
FORT MADISON * CLEAR     54  36  50 W10       29.87S
KEOKUK *       CLEAR     54  36  50 W12       29.86S
OSKALOOSA *      N/A     45  32  61 NW10      29.89S
CENTERVILLE *  CLEAR     45  32  61 W10       29.92S
OTTUMWA        CLEAR     51  31  46 W9        29.89R
WASHINGTON *   CLEAR     50  34  53 W10       29.86S
$$

ABBREVIATIONS USED IN REMARKS
   TC - TEMPERATURES IN CELSIUS
  WCI - WIND CHILL INDEX
   HX - HEAT INDEX
  VSB - VISIBILITY
$$



USA.gov is the U.S. government's official web portal to all federal, state and local government web resources and services.